Regional Weather Roundup
Issued by NWS Cleveland, OH

Home | Current Version | Previous Version | Graphics & Text | Print | Product List | Glossary On
Versions: 1 2 3 4 5 6 7 8 9 10 11 12 13 14 15 16 17 18 19 20 21 22 23 24 25 26 27 28 29 30 31 32 33 34 35 36 37 38 39 40 41 42 43 44 45 46 47 48 49 50
000
ASUS41 KCLE 201610
RWRCLE
OHIO REGIONAL WEATHER ROUNDUP
NATIONAL WEATHER SERVICE WILMINGTON, OH
1200 PM EDT FRI APR 20 2018

NOTE: "FAIR" INDICATES FEW OR NO CLOUDS BELOW 12,000 FEET WITH NO
SIGNIFICANT WEATHER AND/OR OBSTRUCTIONS TO VISIBILITY.

OHZ001>008-015>018-024>027-034-035-043-044-201700-
   NORTHWEST OHIO

CITY           SKY/WX    TMP DP  RH WIND       PRES   REMARKS
DEFIANCE       FAIR      49  26  41 W3        30.50R
FINDLAY        FAIR      51  23  33 N9        30.47S
TOLEDO EXPRESS FAIR      50  23  34 VRB7      30.48S
TOLEDO EXEC    FAIR      49  24  37 CALM      30.49S
LIMA           FAIR      47  25  42 VRB3      30.48S
$$

OHZ009>014-019>023-028>033-038-089-201700-
   NORTHEAST OHIO

CITY           SKY/WX    TMP DP  RH WIND       PRES   REMARKS
CLE-HOPKINS    SUNNY     46  21  37 N7        30.49S
CLE-LAKEFRONT  FAIR      41  30  65 NW5       30.47S
CUY CO. ARPT   SUNNY     43  21  42 N12       30.47R
LORAIN-ELYRIA  FAIR      45  20  36 NE15      30.47S
ASHTABULA      FAIR      41  23  48 N10G18    30.44S
AKRON-CANTON   FAIR      47  22  37 N17       30.43S
WOOSTER        FAIR      46  24  42 N13G20    30.45S
MANSFIELD      FAIR      45  25  45 NE5       30.46S
YOUNGSTOWN     FAIR      45  24  43 NW14G23   30.41S
$$

OHZ042-051>053-060>062-070>072-077>081-201700-
  SOUTHWEST OHIO

CITY           SKY/WX    TMP DP  RH WIND       PRES   REMARKS
CINC-COVINGTON FAIR      51  24  34 NE3       30.48S
CINC-LUNKEN    FAIR      51  28  41 CALM      30.50F
HAMILTON       FAIR      51  28  41 MISG      30.50F
DAYTON         FAIR      49  23  36 NE6       30.49S
WRIGHT-PAT AFB FAIR      48  27  45 CALM      30.48F
DAYTON GENERAL FAIR      51  25  36 N6        30.47F
WILMINGTON     FAIR      50  29  44 VRB5      30.47F
$$

OHZ036-037-039>041-045>050-054>059-063>069-073>076-082>088-201700-
  CENTRAL AND SOUTHEAST OHIO

CITY           SKY/WX    TMP DP  RH WIND       PRES   REMARKS
COLUMBUS       FAIR      50  23  34 NW6       30.47S
OSU AIRPORT    FAIR      48  24  39 NW10      30.47S
BOLTON FIELD   SUNNY     48  27  43 NW7       30.48S
RICKENBACK AFB FAIR      47  24  39 NW10      30.47F
NEWARK         FAIR      48  26  42 VRB7      30.46S
MARION         FAIR      45  22  40 VRB5      30.48R
LANCASTER      FAIR      48  28  46 NW9       30.48S
ZANESVILLE     NOT AVBL
NEW PHILLY     FAIR      48  24  39 NW10G16   30.45S
$$




USA.gov is the U.S. government's official web portal to all federal, state and local government web resources and services.